Location: Casilda
(33.0440°S, 61.1680°W)
Time: 04:57:45
(UTC-03:00)

ISS - Pass Details

Date: 03 December 2022
Orbit: 411 x 420 km, 51.6° (Epoch: 30 November)

Event Time Altitude Azimuth Distance (km) Brightness Sun altitude
Exits shadow 02:05:17 11° 167° (SSE) 1,473 -0.2 -32.3°
Drops below altitude 10° 02:05:27 10° 165° (SSE) 1,518 -0.1 -32.3°
Sets 02:07:58 0° 147° (SSE) 2,391 1.1 -32.1°
